PORT of KEA

Страна: Greece Страна: Greece [GR]
Широта / Долгота: 37.664015° / 24.3201° Показать на карте
Местное время:  [UTC +3]
UN/LOCODE: GRKEA

Судов в порту


Записей не найдено

Последние прибытия и отбытия


Имя судна
Прибытие (UTC)
Прибытие (LT)
Отправление (UTC)
Отправление (LT)
Vessel Type: Пассажирские суда  AQUA JEWEL 2014-09-01 15:33:00 2014-09-01 18:33:00 2014-09-01 15:45:00 2014-09-01 18:45:00
Vessel Type: Пассажирские суда  MARMARI EXPRESS 2014-09-01 14:32:00 2014-09-01 17:32:00 2014-09-01 15:36:00 2014-09-01 18:36:00
Vessel Type: Яхты и другие  WAMM III 2014-09-01 10:20:00 2014-09-01 13:20:00
Vessel Type: Пассажирские суда  AQUA JEWEL 2014-09-01 08:44:00 2014-09-01 11:44:00 2014-09-01 09:09:00 2014-09-01 12:09:00
Vessel Type: Яхты и другие  WALKER 2014-08-28 11:17:00 2014-08-28 14:17:00 2014-09-01 08:52:00 2014-09-01 11:52:00
Vessel Type: Грузовые суда  MARIA P 2014-09-01 04:53:00 2014-09-01 07:53:00 2014-09-01 08:25:00 2014-09-01 11:25:00
Vessel Type: Яхты и другие  BUNGA PALA 2014-08-31 15:38:00 2014-08-31 18:38:00 2014-09-01 08:20:00 2014-09-01 11:20:00
Vessel Type: Пассажирские суда  MACEDON 2014-09-01 06:31:00 2014-09-01 09:31:00 2014-09-01 07:52:00 2014-09-01 10:52:00
Vessel Type: Пассажирские суда  MACEDON 2014-08-31 21:22:00 2014-09-01 00:22:00 2014-09-01 03:37:00 2014-09-01 06:37:00
Vessel Type: Пассажирские суда  MACEDON 2014-08-31 18:16:00 2014-08-31 21:16:00 2014-08-31 19:02:00 2014-08-31 22:02:00

Ожидаемые прибытия


Имя судна
Scheduled Arrival (UTC)
Запланированное прибытие (местное время)
Ожидаемое прибытие (ОП) (UTC)
Ожидаемое прибытие (местное время)
Записей не найдено

Wind Forecast


    
Время (UTC)
Скорость
Direction
Temperature
2014-09-02 00:00:00 7 knots 235° 25°C
2014-09-02 03:00:00 10 knots 231° 25°C
2014-09-02 06:00:00 13 knots 204° 25°C
2014-09-02 09:00:00 15 knots 211° 25°C
2014-09-02 12:00:00 18 knots 205° 25°C
2014-09-02 15:00:00 20 knots 195° 25°C
2014-09-02 18:00:00 20 knots 202° 25°C
2014-09-02 21:00:00 17 knots 201° 25°C
2014-09-03 00:00:00 13 knots 213° 25°C
2014-09-03 03:00:00 12 knots 231° 24°C
2014-09-03 06:00:00 14 knots 204° 25°C
2014-09-03 09:00:00 15 knots 201° 25°C
2014-09-03 12:00:00 16 knots 205° 26°C
2014-09-03 15:00:00 15 knots 202° 26°C
2014-09-03 18:00:00 12 knots 202° 26°C
2014-09-03 21:00:00 8 knots 212° 25°C
2014-09-04 00:00:00 4 knots 320° 25°C